Voltar ao catálogo

ICESAT-2

AtivoCiênciaPO
NORAD 43613·PAYLOAD·🇺🇸 United States

Lançado Sep 15, 2018 de Vandenberg Space Force Base

Loading…

Próximas Passagens (próximas 24 horas)

TLE

AtualizadoSource: Space-Track

Época: Sep 14, 2026, 14:23 UTC

1 43613U 18070A   26257.59946439  .00006784  00000-0  24637-3 0  9994
2 43613  92.0025 315.1297 0005687 109.6972 250.4891 15.28260136446114

Acompanhe ICESAT-2 em tempo real com AllMySat

Download on the App Store